Location: Austin
(30.3000°N, 97.7500°W)
Time: 02:36:10
(UTC-05:00)

Lacrosse 5 - Pass Details

Date: 01 October 2024
Orbit: 714 x 724 km, 57.0° (Epoch: 09 March)

Event Time Altitude Azimuth Distance (km) Brightness Sun altitude
Rises 21:25:12 0° 259° (W) 3,127 6.1 -28.6°
Reaches altitude 10° 21:28:22 10° 279° (W) 2,207 5.3 -29.3°
Maximum altitude 21:31:41 17° 320° (NW) 1,768 4.4 -30.0°
Drops below altitude 10° 21:35:00 10° 1° (N) 2,209 4.5 -30.7°
Enters shadow 21:35:31 - 5° (N) 2,336 4.6 -30.8°
